Location: Starlight Observatory
(38.4029°N, 85.8936°W)
Time: 04:46:17
(UTC-04:00)

Amateur Radio Satellites - All Passes

Search period start: 20 August 2014 04:16
Search period end: 21 August 2014 04:16
Location: Starlight Observatory, 38.4029°N, 85.8936°W

Satellite Date Start Highest point End Downlink Frequencies (MHz)
Time Altitude Azimuth
Saudisat 1A 20 Aug 04:23:03 04:24:39 12° 319° (NW) 04:26:15 436.775 MHz
Gurwin Techsat 1B 20 Aug 04:23:37 04:28:53 60° 101° (E) 04:34:06 435.225 FM
Oscar 19 20 Aug 04:32:54 04:36:52 23° 294° (WNW) 04:40:50 437.125 CW, 437.150 USB
ITAMSAT 1 20 Aug 04:37:25 04:42:19 44° 289° (WNW) 04:47:12 435.822 SSB
Uribyol 2 20 Aug 04:50:48 04:55:19 32° 292° (WNW) 04:59:51 436.500 FM
AO-Echo 20 Aug 04:55:27 04:59:14 24° 293° (WNW) 05:02:59 ?
JAS-1B 20 Aug 04:56:50 05:04:12 54° 292° (WNW) 05:10:24 435.800 - 435.900 CW/SSB
AO-27 20 Aug 05:03:47 05:07:59 26° 294° (WNW) 05:12:09 436.795 MHz FM
Oscar 16 20 Aug 05:07:58 05:09:13 11° 300° (WNW) 05:10:28 437.025 USB, Beacon 2401.1428
Sapphire 20 Aug 05:16:20 05:21:25 39° 55° (NE) 05:26:27 437.095 MHz 1200 baud AX-25 AFSK
OPAL 20 Aug 05:17:43 05:22:41 81° 255° (WSW) 05:27:46 ?
AO-7 20 Aug 05:23:03 05:30:35 37° 98° (E) 05:38:02 29.400 - 29.500 MHz
TMSAT-1 20 Aug 05:23:09 05:28:17 52° 288° (WNW) 05:33:23 436.925 FM
Uosat F 20 Aug 05:34:32 05:39:13 39° 99° (E) 05:43:51 435.120 FM
KITSAT 1 20 Aug 05:37:56 05:42:14 15° 329° (NNW) 05:46:32 435.175 FM
PCSat 20 Aug 05:46:55 05:52:22 75° 61° (ENE) 05:57:46 145.825 MHz
Gurwin Techsat 1B 20 Aug 06:05:01 06:08:19 17° 297° (WNW) 06:11:37 435.225 FM
Hamsat 20 Aug 06:28:20 06:29:36 11° 90° (E) 06:30:52 145.90 MHz
STRAND 1 20 Aug 06:43:21 06:47:19 23° 66° (ENE) 06:51:17 ?
Sapphire 20 Aug 07:00:07 07:04:38 28° 252° (WSW) 07:09:09 437.095 MHz 1200 baud AX-25 AFSK
Uosat F 20 Aug 07:13:54 07:17:44 23° 294° (WNW) 07:21:34 435.120 FM
AO-7 20 Aug 07:15:37 07:23:25 47° 296° (WNW) 07:31:12 29.400 - 29.500 MHz
PCSat 20 Aug 07:32:39 07:35:04 13° 257° (WSW) 07:37:28 145.825 MHz
SO-50 20 Aug 07:36:13 07:40:40 87° 120° (ESE) 07:45:15 436.795 FM
JAS-2 20 Aug 07:54:07 07:59:19 79° 103° (ESE) 08:04:36 435.800 - 435.900 CW/SSB, 435.910 FM
Hamsat 20 Aug 08:01:37 08:05:55 58° 285° (WNW) 08:10:11 145.90 MHz
STRAND 1 20 Aug 08:21:28 08:26:14 39° 262° (W) 08:31:02 ?
RS-15 20 Aug 08:39:26 08:45:54 18° 99° (E) 08:52:15 29.354 - 29.394 USB, Beacon 29.352 USB
UOSAT-12 20 Aug 09:00:58 09:05:21 48° 116° (ESE) 09:09:52 437.025 FM, 437.400 FM
SO-67 20 Aug 09:04:31 09:07:57 64° 284° (WNW) 09:11:22 435.3500 MHz FM
SO-50 20 Aug 09:19:51 09:21:54 13° 319° (NW) 09:23:58 436.795 FM
KITSAT 1 20 Aug 09:37:35 09:42:12 16° 32° (NNE) 09:46:48 435.175 FM
JAS-2 20 Aug 09:42:11 09:43:44 11° 300° (WNW) 09:45:17 435.800 - 435.900 CW/SSB, 435.910 FM
HO-68 20 Aug 10:08:23 10:14:53 37° 98° (E) 10:21:21 435.675 MHz FM
UKube-1 20 Aug 10:31:40 10:35:24 28° 97° (E) 10:39:06 145.840 MHz, 145.915 MHz
UOSAT-12 20 Aug 10:42:15 10:45:46 21° 314° (NW) 10:49:20 437.025 FM, 437.400 FM
RS-15 20 Aug 10:45:22 10:56:31 84° 118° (ESE) 11:07:27 29.354 - 29.394 USB, Beacon 29.352 USB
Oscar 11 20 Aug 10:50:08 10:53:53 27° 96° (E) 10:57:36 145.825 FM, Beacon 2401.500 USB
Saudisat 1A 20 Aug 11:08:14 11:12:31 47° 55° (NE) 11:16:45 436.775 MHz
KITSAT 1 20 Aug 11:31:32 11:39:31 59° 56° (NE) 11:47:25 435.175 FM
HO-68 20 Aug 11:56:00 12:02:33 41° 295° (WNW) 12:09:06 435.675 MHz FM
UKube-1 20 Aug 12:08:00 12:11:28 24° 292° (WNW) 12:14:56 145.840 MHz, 145.915 MHz
FUNcube-1 20 Aug 12:19:22 12:23:47 76° 284° (WNW) 12:28:17 145.950 - 145.970 MHz USB
Oscar 11 20 Aug 12:26:25 12:29:56 24° 291° (WNW) 12:33:27 145.825 FM, Beacon 2401.500 USB
Saudisat 1A 20 Aug 12:48:57 12:51:42 16° 251° (WSW) 12:54:25 436.775 MHz
AO-40 20 Aug 12:59:24 04:15:46 42° 189° (S) 13:16:26 Beacon 2401.320
RS-15 20 Aug 13:00:50 13:10:11 31° 323° (NW) 13:19:33 29.354 - 29.394 USB, Beacon 29.352 USB
Oscar 16 20 Aug 13:04:56 13:07:22 14° 61° (ENE) 13:09:49 437.025 USB, Beacon 2401.1428
KITSAT 1 20 Aug 13:27:43 13:34:23 30° 254° (WSW) 13:41:03 435.175 FM
JAS-1B 20 Aug 13:47:41 13:55:26 28° 59° (ENE) 14:02:52 435.800 - 435.900 CW/SSB
Oscar 19 20 Aug 14:08:17 14:13:15 52° 72° (ENE) 14:18:15 437.125 CW, 437.150 USB
ITAMSAT 1 20 Aug 14:15:24 14:19:43 27° 67° (ENE) 14:24:03 435.822 SSB
AO-Echo 20 Aug 14:27:29 14:32:15 38° 71° (ENE) 14:36:56 ?
Uribyol 2 20 Aug 14:27:52 14:32:36 38° 70° (ENE) 14:37:20 436.500 FM
AO-27 20 Aug 14:40:33 14:45:31 48° 71° (ENE) 14:50:30 436.795 MHz FM
Oscar 16 20 Aug 14:40:57 14:46:04 73° 258° (WSW) 14:51:14 437.025 USB, Beacon 2401.1428
TMSAT-1 20 Aug 15:03:46 15:08:00 25° 66° (ENE) 15:12:15 436.925 FM
RS-15 20 Aug 15:21:40 15:27:44 16° 358° (N) 15:33:50 29.354 - 29.394 USB, Beacon 29.352 USB
ISS 20 Aug 15:26:25 15:29:43 73° 139° (SE) 15:33:02 145.800 FM
JAS-1B 20 Aug 15:35:04 15:44:58 80° 256° (WSW) 15:54:36 435.800 - 435.900 CW/SSB
Gurwin Techsat 1B 20 Aug 15:43:12 15:48:30 81° 75° (ENE) 15:53:50 435.225 FM
Oscar 19 20 Aug 15:49:36 15:52:52 17° 268° (W) 15:56:11 437.125 CW, 437.150 USB
ITAMSAT 1 20 Aug 15:54:24 15:59:04 34° 263° (W) 16:03:45 435.822 SSB
AO-Echo 20 Aug 16:06:56 16:11:04 24° 265° (W) 16:15:09 ?
Uribyol 2 20 Aug 16:08:03 16:12:09 24° 265° (W) 16:16:16 436.500 FM
SO-50 20 Aug 16:09:10 16:13:51 52° 55° (NE) 16:18:34 436.795 FM
AO-7 20 Aug 16:20:15 16:28:02 45° 64° (ENE) 16:35:48 29.400 - 29.500 MHz
AO-27 20 Aug 16:21:41 16:25:15 19° 267° (W) 16:28:51 436.795 MHz FM
TMSAT-1 20 Aug 16:42:47 16:47:41 38° 262° (W) 16:52:37 436.925 FM
MaSat-1 20 Aug 16:44:39 16:49:16 85° 113° (ESE) 16:54:23 437.345 MHz
Uosat F 20 Aug 16:46:18 16:51:05 47° 71° (ENE) 16:55:53 435.120 FM
ISS 20 Aug 17:04:25 17:06:46 18° 336° (NNW) 17:09:08 145.800 FM
Gurwin Techsat 1B 20 Aug 17:27:41 17:29:02 11° 271° (W) 17:30:24 435.225 FM
OPAL 20 Aug 17:29:22 17:33:57 31° 99° (E) 17:38:31 ?
JAS-1B 20 Aug 17:30:32 17:36:27 17° 273° (W) 17:42:21 435.800 - 435.900 CW/SSB
UOSAT-12 20 Aug 17:32:09 17:36:18 29° 50° (NE) 17:40:23 437.025 FM, 437.400 FM
RS-15 20 Aug 17:36:35 17:45:37 28° 34° (NE) 17:54:49 29.354 - 29.394 USB, Beacon 29.352 USB
SO-50 20 Aug 17:50:52 17:54:01 18° 251° (WSW) 17:57:10 436.795 FM
JAS-2 20 Aug 18:04:30 18:10:17 31° 68° (ENE) 18:15:31 435.800 - 435.900 CW/SSB, 435.910 FM
AO-7 20 Aug 18:13:10 18:20:48 39° 261° (W) 18:28:30 29.400 - 29.500 MHz
MaSat-1 20 Aug 18:24:41 18:27:10 14° 313° (NW) 18:29:44 437.345 MHz
Uosat F 20 Aug 18:26:39 18:30:05 18° 267° (W) 18:33:31 435.120 FM
PANSAT 20 Aug 18:34:45 18:37:05 16° 170° (S) 18:39:26 not established
PCSat 20 Aug 18:48:23 18:49:44 11° 102° (ESE) 18:51:05 145.825 MHz
Hamsat 20 Aug 18:53:07 18:57:21 81° 77° (ENE) 19:01:40 145.90 MHz
OPAL 20 Aug 19:08:12 19:12:45 31° 294° (WNW) 19:17:17 ?
UOSAT-12 20 Aug 19:12:16 19:16:25 31° 247° (WSW) 19:20:30 437.025 FM, 437.400 FM
SO-67 20 Aug 19:36:18 19:39:20 29° 73° (ENE) 19:42:23 435.3500 MHz FM
RS-15 20 Aug 19:48:37 19:59:46 85° 59° (ENE) 20:11:22 29.354 - 29.394 USB, Beacon 29.352 USB
JAS-2 20 Aug 19:48:44 19:55:12 42° 261° (W) 20:01:00 435.800 - 435.900 CW/SSB, 435.910 FM
Sapphire 20 Aug 19:56:32 20:01:41 47° 112° (ESE) 20:06:51 437.095 MHz 1200 baud AX-25 AFSK
PANSAT 20 Aug 20:13:59 20:16:39 18° 183° (S) 20:19:20 not established
ISS 20 Aug 20:21:01 20:22:36 13° 17° (NNE) 20:24:11 145.800 FM
PCSat 20 Aug 20:26:55 20:32:19 86° 297° (WNW) 20:37:47 145.825 MHz
STRAND 1 20 Aug 20:33:09 20:38:16 79° 103° (ESE) 20:43:21 ?
HO-68 20 Aug 20:36:24 20:41:54 25° 60° (ENE) 20:47:24 435.675 MHz FM
SO-67 20 Aug 21:10:42 21:12:27 13° 267° (W) 21:14:13 435.3500 MHz FM
UKube-1 20 Aug 21:26:17 21:29:34 21° 67° (ENE) 21:32:51 145.840 MHz, 145.915 MHz
Sapphire 20 Aug 21:40:57 21:45:19 25° 310° (NW) 21:49:43 437.095 MHz 1200 baud AX-25 AFSK
Oscar 11 20 Aug 21:44:30 21:47:31 19° 67° (ENE) 21:50:33 145.825 FM, Beacon 2401.500 USB
PANSAT 20 Aug 21:54:55 21:56:10 11° 196° (SSW) 21:57:25 not established
ISS 20 Aug 21:56:41 21:59:57 52° 36° (NE) 22:03:13 145.800 FM
RS-15 20 Aug 22:02:49 22:10:48 23° 258° (WSW) 22:19:02 29.354 - 29.394 USB, Beacon 29.352 USB
PCSat 20 Aug 22:13:46 22:16:33 14° 317° (NW) 22:19:21 145.825 MHz
STRAND 1 20 Aug 22:14:45 22:16:45 12° 299° (WNW) 22:18:46 ?
HO-68 20 Aug 22:21:59 22:29:02 63° 257° (WSW) 22:36:08 435.675 MHz FM
UKube-1 20 Aug 23:01:41 23:05:34 32° 262° (W) 23:09:28 145.840 MHz, 145.915 MHz
FUNcube-1 20 Aug 23:14:28 23:18:35 70° 76° (ENE) 23:22:44 145.950 - 145.970 MHz USB
Oscar 11 20 Aug 23:19:28 23:23:26 35° 262° (W) 23:27:26 145.825 FM, Beacon 2401.500 USB
ISS 20 Aug 23:34:24 23:36:22 15° 231° (SW) 23:38:21 145.800 FM
MaSat-1 21 Aug 01:05:21 01:08:25 16° 49° (NE) 01:11:16 437.345 MHz
Saudisat 1A 21 Aug 01:14:43 01:17:36 17° 110° (ESE) 01:20:29 436.775 MHz
KITSAT 1 21 Aug 01:57:55 02:05:36 49° 111° (ESE) 02:13:17 435.175 FM
Oscar 19 21 Aug 02:22:11 02:26:05 21° 94° (E) 02:29:57 437.125 CW, 437.150 USB
AO-Echo 21 Aug 02:38:29 02:40:11 12° 90° (E) 02:41:52 ?
MaSat-1 21 Aug 02:41:19 02:46:04 59° 250° (WSW) 02:50:11 437.345 MHz
Uribyol 2 21 Aug 02:43:23 02:46:17 15° 92° (E) 02:49:10 436.500 FM
Saudisat 1A 21 Aug 02:52:36 02:56:49 45° 306° (NW) 03:01:04 436.775 MHz
Oscar 16 21 Aug 02:54:17 02:59:17 45° 99° (E) 03:04:14 437.025 USB, Beacon 2401.1428
AO-27 21 Aug 02:56:01 02:59:41 19° 94° (E) 03:03:20 436.795 MHz FM
JAS-1B 21 Aug 03:25:49 03:32:20 33° 93° (E) 03:37:56 435.800 - 435.900 CW/SSB
KITSAT 1 21 Aug 03:53:43 04:01:08 39° 310° (NW) 04:08:36 435.175 FM
Oscar 19 21 Aug 04:00:41 04:05:35 43° 289° (WNW) 04:10:28 437.125 CW, 437.150 USB
Gurwin Techsat 1B 21 Aug 04:01:16 04:06:09 36° 97° (E) 04:11:00 435.225 FM
